Location: The Saddle
(36.8333°N, 80.3417°W)
Time: 14:02:55
(UTC-05:00)

A-11 Canister half - Pass Details

Date: 18 December 2023
Orbit: 1512 x 1687 km, 47.2° (Epoch: 28 February)

Event Time Altitude Azimuth Distance (km) Brightness Sun altitude
Rises 23:56:36 0° 284° (WNW) 4,703 - -75.8°
Reaches altitude 10° 23:59:50 10° 291° (WNW) 3,741 - -76.0°
Maximum altitude 00:08:52 45° 2° (N) 2,062 - -76.4°
Drops below altitude 10° 00:18:13 10° 74° (ENE) 3,873 - -76.5°
Sets 00:21:38 0° 80° (E) 4,882 - -76.5°
